Погода в Ключевом

Россия / Еврейская автономная область     48°32′07″N   134°43′39″E
темп.,
°C
ветер,
м/с
пор.,
м/с
влажн.,
%
обл.,
%
осадки,
мм/ч
давл.,
гПа
погр.,
м
16 сентября, чт
чт1601:00+12ююз3366100 0.0 101843
04:00+12ююз3466100 0.0 101772
07:00+11ю3366100 0.0 101756
10:00+16ююз3761100 0.0 1016373
13:00+19ю4649100 0.0 1014956
16:00+18ююз6863100 0.0 10121175
19:00+13ю4996100 3.4 1012584
22:00+13ююз4996100 5.3 1012480
17 сентября, пт
пт1701:00+12юз3998100 0.3 1012475
04:00+11юз5997100 0.4 1012317
07:00+10юз489827 0.0 1013198
10:00+15юз568324 0.0 1013490
13:00+19зюз57570 0.0 10131535
16:00+21зюз57450 0.0 10111907
19:00+16ююз34640 0.0 101135
22:00+13ююз48620 0.0 1011121
18 сентября, сб
сб1801:00+13ююз514635 0.0 1011273
04:00+12ююз514735 0.0 1011317
07:00+11юз4118599 0.1 1011243
10:00+15юз6976100 0.4 1012494
13:00+16з5781100 0.3 1012831
16:00+19зсз465139 0.4 10111571
19:00+14сз35563 0.0 101361
22:00+10зсз35562 0.0 101570
19 сентября, вс
вс1901:00+8з37645 0.0 1016111
04:00+7з497132 0.0 1017156
07:00+6з410742 0.0 1017169
10:00+13зсз69493 0.0 1018747
13:00+16зсз67363 0.0 10171565
16:00+16зсз57350 0.0 10171694
19:00+11з33510 0.0 101728
22:00+9з33540 0.0 101925
20 сентября, пн
пн2001:00+7з33590 0.0 101940
04:00+6зюз34650 0.0 102049
07:00+6юз46690 0.0 102082
10:00+13зюз57525 0.0 1021374
13:00+17зюз453989 0.0 10191310
16:00+18юз4536100 0.0 10181417
19:00+13ююз3350100 0.0 101817
22:00+11ююз334654 0.0 101829